Content
SEND FEEDBACK

Daily
Averages
Monthly
Summary
Netherlands

AMSTERDAM, NETHERLANDS


Home > Europe > Netherlands
Elevation: 7 feet     Latitude: 52 18N     Longitude: 004 46E

WEATHER
 
SELECT A DAY
Number of Records: 309,412;   Date Range: 7/1/96 - 10/20/14
 
SHARE

PRINT THIS DATA

[ ← Previous Day ]
WEATHER ALMANAC - MARCH 1, 2013
[ Next Day → ]
[ °C ]   °F
Weather ElementAverageHighLow
Temperature38.5 °F41 °F (11:55 am)35.6 °F (7:25 am)
Dewpoint32.8 °F37.4 °F (3:25 am)30 °F (10:00 pm)
Humidity79.3 %100 % (3:25 am)57 % (1:00 pm)
Barometer30.33 in30.36 in (10:00 pm)30.30 in (3:25 am)
Wind Speed8.6 mph15 mph (2:55 pm)
Weather ElementAverage
Visibility6.2 mi
Wind DirectionESE (99.8 °)

Weather ElementTotal
Precipitation---
Heating Degree Days26.7 (Base 65)
Averaged from 55 records on March 1, 2013
WEATHER CONDITIONS BREAKOUT
WIND DIRECTION BREAKOUT
WEATHER BY HOUR - MARCH 1, 2013
[ °C ]   °F
Local TimeTemperatureDewpointHumidityBarometerVisibilityWind DirectionWind SpeedGust SpeedPrecipitationEventsConditions
12:55 AM37.4 °F33.8 °F87 %30.33 in6.2 miNorth (350°)3.5 mphOvercast
1:00 AM38.0 °F35.0 °F82 %30.35 in9.0 miNorth2.2 mphPartly Cloudy
1:25 AM37.4 °F35.6 °F93 %30.33 in6.2 miWest (270°)3.5 mphMostly Cloudy
1:55 AM37.4 °F35.6 °F93 %30.33 in6.2 miNW (320°)4.6 mphLight Drizzle
2:25 AM37.4 °F35.6 °F93 %30.33 in6.2 miNW (310°)3.5 mphMostly Cloudy
2:55 AM37.4 °F35.6 °F93 %30.33 in1.1 miNW (310°)3.5 mphLight Drizzle
3:25 AM37.4 °F37.4 °F100 %30.30 in0.9 miWest (280°)3.5 mphLight Drizzle
3:55 AM37.4 °F37.4 °F100 %30.30 in0.7 miWNW (290°)3.5 mphLight Drizzle
4:00 AM37.0 °F37.0 °F100 %30.32 in0.0 miWNW (300°)4.5 mphFogFog
4:25 AM37.4 °F37.4 °F100 %30.30 in0.7 miVariable2.3 mphLight Drizzle
4:55 AM37.4 °F37.4 °F100 %30.30 inNW (310°)3.5 mphMostly Cloudy
5:25 AM37.4 °F37.4 °F100 %30.30 in2.8 miNNW (340°)3.5 mphMostly Cloudy
5:55 AM39.2 °F37.4 °F93 %30.30 in5.0 miNNE (20°)8.1 mphMostly Cloudy
6:25 AM39.2 °F37.4 °F93 %30.30 in6.2 miNNE (20°)9.2 mphMostly Cloudy
6:55 AM39.2 °F35.6 °F87 %30.30 in6.2 miNorth (360°)4.6 mphMostly Cloudy
7:00 AM38.0 °F36.0 °F91 %30.32 in9.0 miNorth4.5 mphPartly Cloudy
7:25 AM35.6 °F33.8 °F93 %30.30 in6.2 miNorth (350°)5.8 mphScattered Clouds
7:55 AM39.2 °F35.6 °F87 %30.30 in6.2 miNorth (350°)5.8 mphMostly Cloudy
8:25 AM39.2 °F37.4 °F93 %30.33 in6.2 miNorth (360°)5.8 mphMostly Cloudy
8:55 AM39.2 °F35.6 °F87 %30.33 in6.2 miNorth (10°)9.2 mphMostly Cloudy
9:25 AM39.2 °F33.8 °F81 %30.33 in6.2 miNorth (10°)9.2 mphMostly Cloudy
9:55 AM39.2 °F32.0 °F75 %30.33 in6.2 miNorth (10°)11.5 mphMostly Cloudy
10:00 AM39.0 °F32.0 °F69 %30.35 in9.0 miNorth (10°)13.4 mphOvercast
10:25 AM39.2 °F32.0 °F75 %30.33 in6.2 miNorth (10°)10.4 mphMostly Cloudy
10:55 AM39.2 °F32.0 °F75 %30.33 in6.2 miNNE (20°)10.4 mphMostly Cloudy
11:25 AM39.2 °F32.0 °F75 %30.33 in6.2 miNorth (360°)11.5 mphMostly Cloudy
11:55 AM41.0 °F32.0 °F70 %30.33 in6.2 miNorth (10°)11.5 mphMostly Cloudy
12:25 PM41.0 °F30.2 °F65 %30.33 in6.2 miNNE (30°)12.7 mphMostly Cloudy
12:55 PM41.0 °F30.2 °F65 %30.33 in6.2 miNNE (20°)12.7 mphMostly Cloudy
1:00 PM41.0 °F31.0 °F57 %30.35 in13.0 miNNE (20°)11.2 mphPartly Cloudy
1:25 PM41.0 °F32.0 °F70 %30.33 in6.2 miNE (40°)12.7 mphMostly Cloudy
1:55 PM41.0 °F32.0 °F70 %30.33 in6.2 miNNE (30°)12.7 mphMostly Cloudy
2:25 PM41.0 °F32.0 °F70 %30.33 in6.2 miNNE (20°)11.5 mphMostly Cloudy
2:55 PM41.0 °F30.2 °F65 %30.33 in6.2 miNNE (30°)15.0 mphMostly Cloudy
3:25 PM39.2 °F30.2 °F70 %30.33 in6.2 miNorth (10°)13.8 mphMostly Cloudy
3:55 PM39.2 °F30.2 °F70 %30.33 in6.2 miNorth (10°)9.2 mphOvercast
4:00 PM40.0 °F31.0 °F61 %30.34 in10.0 miNNE (20°)11.2 mphOvercast
4:25 PM39.2 °F30.2 °F70 %30.33 in6.2 miNNE (20°)11.5 mphOvercast
4:55 PM39.2 °F30.2 °F70 %30.33 in6.2 miNorth (10°)13.8 mphOvercast
5:25 PM39.2 °F30.2 °F70 %30.33 in6.2 miNorth (10°)13.8 mphOvercast
5:55 PM39.2 °F30.2 °F70 %30.33 in6.2 miNNE (20°)10.4 mphOvercast
6:25 PM37.4 °F30.2 °F75 %30.33 in6.2 miNNE (20°)10.4 mphOvercast
6:55 PM37.4 °F30.2 °F75 %30.33 in6.2 miNNE (20°)10.4 mphOvercast
7:00 PM37.0 °F31.0 °F69 %30.35 in12.0 miNNE (20°)6.7 mphPartly Cloudy
7:25 PM37.4 °F30.2 °F75 %30.33 in6.2 miNorth (10°)10.4 mphOvercast
7:55 PM37.4 °F30.2 °F75 %30.33 in6.2 miNorth (10°)9.2 mphOvercast
8:25 PM37.4 °F30.2 °F75 %30.33 in6.2 miNorth (10°)6.9 mphOvercast
8:55 PM37.4 °F30.2 °F75 %30.33 in6.2 miNorth (10°)11.5 mphOvercast
9:25 PM37.4 °F30.2 °F75 %30.33 in6.2 miNNE (30°)8.1 mphOvercast
9:55 PM37.4 °F30.2 °F75 %30.33 in6.2 miNorth (10°)10.4 mphOvercast
10:00 PM38.0 °F30.0 °F64 %30.36 in12.0 miNNE (20°)11.2 mphOvercast
10:25 PM37.4 °F30.2 °F75 %30.36 in6.2 miNNE (20°)11.5 mphOvercast
10:55 PM37.4 °F30.2 °F75 %30.36 in6.2 miNorth (10°)8.1 mphOvercast
11:25 PM37.4 °F30.2 °F75 %30.33 in6.2 miNNE (20°)9.2 mphOvercast
11:55 PM37.4 °F30.2 °F75 %30.33 in6.2 miNorth (10°)6.9 mphMostly Cloudy
Hourly data recorded from EHAM, located miles away from Amsterdam, Netherlands







STORIES FROM OUR PARTNERS